AZA731 LGAV-LIMC

Flight info

Callsign AZA731
Flight time 2h 16m
Altitude 36000
Route KOR UL53 IXONI DCT OLGAT DCT KAPPO DCT FASAN DCT BAR DCT URIPI DCT TUFTE DCT LOMED DCT BEROK DCT MIVKI DCT GOLAS/N0356F180 T648 MEBUR
Aircraft MD82/M-SDFGIRWY/S

Departure

Time 2026-05-04 17:26
Airport Athens Eleftherios Venizelos International Airport (LGAV)

Arrival

Time 2026-05-04 19:43
Airport Milan Malpensa International Airport (LIMC)
Time Latitude Longitude Altitude Speed Heading
2026-05-04 17:08 37.93041 23.94273 302 ft 0 kts 37°
2026-05-04 17:18 37.93023 23.94257 305 ft 3 kts 34°
2026-05-04 17:19 37.92989 23.94227 303 ft 3 kts 45°
2026-05-04 17:19 37.92985 23.94187 302 ft 3 kts 120°
2026-05-04 17:20 37.92994 23.94168 302 ft 0 kts 127°
2026-05-04 17:22 37.92993 23.94171 302 ft 1 kts 127°
2026-05-04 17:22 37.92981 23.94191 302 ft 5 kts 127°
2026-05-04 17:23 37.92868 23.94378 303 ft 10 kts 127°
2026-05-04 17:23 37.92823 23.94444 303 ft 10 kts 148°
2026-05-04 17:23 37.92690 23.94370 305 ft 13 kts 217°
2026-05-04 17:24 37.92616 23.94301 306 ft 13 kts 217°
2026-05-04 17:24 37.92409 23.94223 305 ft 10 kts 89°
2026-05-04 17:25 37.92411 23.94297 308 ft 7 kts 87°
2026-05-04 17:25 37.92443 23.94413 309 ft 13 kts 36°
2026-05-04 17:26 37.93138 23.95074 296 ft 124 kts 37°
2026-05-04 17:26 37.95805 23.97721 1776 ft 171 kts 39°
2026-05-04 17:27 37.97715 23.99645 2814 ft 186 kts 33°
2026-05-04 17:27 38.00005 24.01760 3581 ft 221 kts 33°
2026-05-04 17:28 38.02672 24.04193 4520 ft 247 kts 30°
2026-05-04 17:29 38.06589 24.01949 6467 ft 265 kts 280°
2026-05-04 17:29 38.06763 23.94796 8512 ft 276 kts 273°
2026-05-04 17:30 38.06640 23.87309 10222 ft 296 kts 272°
2026-05-04 17:31 38.06577 23.81747 10545 ft 332 kts 273°
2026-05-04 17:31 38.06570 23.72604 11732 ft 355 kts 273°
2026-05-04 17:32 38.06585 23.66263 12771 ft 363 kts 273°
2026-05-04 17:33 38.06584 23.57608 14083 ft 373 kts 273°
2026-05-04 17:33 38.06590 23.54297 14572 ft 375 kts 273°
2026-05-04 17:34 38.06593 23.44290 16121 ft 381 kts 272°
2026-05-04 17:34 38.06582 23.40918 16636 ft 383 kts 271°
2026-05-04 17:35 38.06519 23.30736 18131 ft 390 kts 270°
2026-05-04 17:35 38.06469 23.23810 19044 ft 394 kts 271°
2026-05-04 17:35 38.06456 23.20326 19489 ft 395 kts 271°
2026-05-04 17:36 38.06442 23.16827 19951 ft 397 kts 271°
2026-05-04 17:36 38.06427 23.13307 20386 ft 399 kts 271°
2026-05-04 17:36 38.06412 23.09773 20797 ft 401 kts 272°
2026-05-04 17:36 38.06386 23.06263 21529 ft 395 kts 273°
2026-05-04 17:37 38.06364 23.02779 22002 ft 396 kts 274°
2026-05-04 17:37 38.06345 22.99267 22364 ft 399 kts 274°
2026-05-04 17:37 38.06332 22.95780 22769 ft 401 kts 274°
2026-05-04 17:37 38.06304 22.92231 23215 ft 403 kts 274°
2026-05-04 17:38 38.06259 22.88672 23651 ft 404 kts 274°
2026-05-04 17:38 38.06218 22.85098 23973 ft 406 kts 274°
2026-05-04 17:38 38.06188 22.81507 24303 ft 408 kts 275°
2026-05-04 17:38 38.06166 22.77911 24639 ft 408 kts 275°
2026-05-04 17:39 38.06286 22.70776 25421 ft 400 kts 288°
2026-05-04 17:39 38.07257 22.67528 25688 ft 391 kts 304°
2026-05-04 17:39 38.08726 22.64642 26045 ft 389 kts 308°
2026-05-04 17:40 38.10287 22.61826 26349 ft 391 kts 309°
2026-05-04 17:40 38.11881 22.59012 26626 ft 392 kts 309°
2026-05-04 17:40 38.13487 22.56198 26948 ft 393 kts 309°
2026-05-04 17:40 38.15089 22.53373 27302 ft 394 kts 309°
2026-05-04 17:41 38.16665 22.50558 27598 ft 396 kts 308°
2026-05-04 17:41 38.18255 22.47677 27885 ft 398 kts 308°
2026-05-04 17:41 38.19836 22.44781 28198 ft 398 kts 308°
2026-05-04 17:41 38.21399 22.41896 28698 ft 395 kts 308°
2026-05-04 17:42 38.22946 22.39034 29234 ft 391 kts 308°
2026-05-04 17:42 38.24480 22.36198 29710 ft 388 kts 308°
2026-05-04 17:42 38.26006 22.33381 30138 ft 386 kts 308°
2026-05-04 17:42 38.27532 22.30570 30470 ft 385 kts 308°
2026-05-04 17:43 38.29054 22.27768 30777 ft 385 kts 308°
2026-05-04 17:43 38.30576 22.24967 31072 ft 385 kts 308°
2026-05-04 17:43 38.32121 22.22176 31287 ft 386 kts 310°
2026-05-04 17:43 38.33756 22.19465 31559 ft 385 kts 312°
2026-05-04 17:44 38.35403 22.16853 31865 ft 382 kts 313°
2026-05-04 17:44 38.37084 22.14219 32079 ft 383 kts 312°
2026-05-04 17:44 38.38761 22.11582 32262 ft 384 kts 313°
2026-05-04 17:44 38.40438 22.08926 32501 ft 384 kts 312°
2026-05-04 17:45 38.42106 22.06282 32842 ft 381 kts 311°
2026-05-04 17:45 38.43754 22.03643 33128 ft 380 kts 311°
2026-05-04 17:45 38.45398 22.00997 33355 ft 380 kts 311°
2026-05-04 17:45 38.47041 21.98347 33585 ft 381 kts 311°
2026-05-04 17:46 38.48687 21.95693 33817 ft 381 kts 311°
2026-05-04 17:46 38.50332 21.93050 34086 ft 380 kts 311°
2026-05-04 17:46 38.51972 21.90412 34305 ft 379 kts 311°
2026-05-04 17:46 38.53608 21.87772 34451 ft 379 kts 311°
2026-05-04 17:47 38.55229 21.85154 34606 ft 380 kts 311°
2026-05-04 17:47 38.56872 21.82502 34790 ft 380 kts 311°
2026-05-04 17:47 38.58514 21.79851 34984 ft 380 kts 311°
2026-05-04 17:47 38.60148 21.77201 35153 ft 379 kts 311°
2026-05-04 17:48 38.61775 21.74559 35404 ft 377 kts 310°
2026-05-04 17:48 38.63401 21.71913 35551 ft 378 kts 310°
2026-05-04 17:48 38.65036 21.69255 35683 ft 379 kts 310°
2026-05-04 17:48 38.66668 21.66602 35836 ft 380 kts 310°
2026-05-04 17:49 38.69941 21.61282 35958 ft 385 kts 310°
2026-05-04 17:49 38.71602 21.58581 36063 ft 387 kts 310°
2026-05-04 17:49 38.73276 21.55861 36101 ft 390 kts 310°
2026-05-04 17:50 38.76656 21.50351 36125 ft 394 kts 310°
2026-05-04 17:50 38.80028 21.44856 36130 ft 390 kts 310°
2026-05-04 17:51 38.83371 21.39393 36134 ft 388 kts 310°
2026-05-04 17:51 38.86677 21.33972 36142 ft 389 kts 310°
2026-05-04 17:52 38.90010 21.28487 36133 ft 390 kts 310°
2026-05-04 17:52 38.93353 21.22986 36138 ft 391 kts 310°
2026-05-04 17:53 38.96716 21.17451 36137 ft 394 kts 310°
2026-05-04 17:53 39.00099 21.11883 36131 ft 394 kts 310°
2026-05-04 17:54 39.03444 21.06365 36128 ft 388 kts 310°
2026-05-04 17:54 39.06757 21.00899 36134 ft 387 kts 310°
2026-05-04 17:55 39.10052 20.95456 36134 ft 389 kts 310°
2026-05-04 17:55 39.13367 20.89935 36134 ft 390 kts 310°
2026-05-04 17:56 39.16689 20.84392 36126 ft 390 kts 310°
2026-05-04 17:56 39.20005 20.78867 36116 ft 389 kts 310°
2026-05-04 17:57 39.23325 20.73333 36119 ft 390 kts 310°
2026-05-04 17:57 39.26654 20.67779 36128 ft 392 kts 310°
2026-05-04 17:58 39.29981 20.62223 36128 ft 394 kts 310°
2026-05-04 17:58 39.33327 20.56632 36119 ft 392 kts 310°
2026-05-04 17:59 39.36647 20.51065 36121 ft 391 kts 309°
2026-05-04 18:00 39.41615 20.42669 36114 ft 393 kts 310°
2026-05-04 18:00 39.44954 20.37033 36117 ft 395 kts 309°
2026-05-04 18:01 39.48276 20.31423 36113 ft 394 kts 309°
2026-05-04 18:01 39.51601 20.25800 36114 ft 393 kts 309°
2026-05-04 18:02 39.56583 20.17373 36123 ft 393 kts 309°
2026-05-04 18:02 39.59910 20.11742 36113 ft 393 kts 309°
2026-05-04 18:03 39.63200 20.06133 36121 ft 394 kts 309°
2026-05-04 18:03 39.66509 20.00459 36124 ft 394 kts 309°
2026-05-04 18:04 39.69822 19.94786 36124 ft 395 kts 309°
2026-05-04 18:05 39.74811 19.86246 36121 ft 394 kts 309°
2026-05-04 18:05 39.78110 19.80603 36117 ft 394 kts 309°
2026-05-04 18:06 39.83074 19.72097 36102 ft 393 kts 309°
2026-05-04 18:06 39.86368 19.66425 36105 ft 392 kts 309°
2026-05-04 18:07 39.89651 19.60722 36113 ft 394 kts 309°
2026-05-04 18:07 39.92712 19.55411 36106 ft 395 kts 309°
2026-05-04 18:08 39.95510 19.50569 36117 ft 395 kts 309°
2026-05-04 18:08 39.98793 19.44892 36099 ft 396 kts 308°
2026-05-04 18:09 40.05363 19.33485 36108 ft 392 kts 308°
2026-05-04 18:10 40.08639 19.27779 36116 ft 393 kts 308°
2026-05-04 18:10 40.11900 19.22045 36114 ft 394 kts 308°
2026-05-04 18:11 40.15141 19.16262 36124 ft 394 kts 308°
2026-05-04 18:11 40.18411 19.10546 36119 ft 395 kts 308°
2026-05-04 18:12 40.21730 19.04821 36108 ft 395 kts 309°
2026-05-04 18:12 40.24957 18.98995 36125 ft 396 kts 301°
2026-05-04 18:13 40.27336 18.92471 36115 ft 397 kts 297°
2026-05-04 18:14 40.30804 18.82637 36113 ft 396 kts 298°
2026-05-04 18:14 40.33206 18.76136 36101 ft 396 kts 298°
2026-05-04 18:15 40.38055 18.63178 36109 ft 397 kts 298°
2026-05-04 18:16 40.40481 18.56654 36107 ft 398 kts 298°
2026-05-04 18:16 40.42903 18.50120 36108 ft 397 kts 298°
2026-05-04 18:17 40.46475 18.40354 36102 ft 394 kts 298°
2026-05-04 18:18 40.50004 18.30671 36111 ft 393 kts 298°
2026-05-04 18:18 40.52372 18.24183 36110 ft 394 kts 298°
2026-05-04 18:19 40.55955 18.14361 36102 ft 399 kts 298°
2026-05-04 18:19 40.58345 18.07795 36099 ft 397 kts 298°
2026-05-04 18:20 40.60323 18.02356 36099 ft 395 kts 298°
2026-05-04 18:20 40.63317 17.94941 36100 ft 394 kts 302°
2026-05-04 18:21 40.65656 17.89774 36099 ft 395 kts 303°
2026-05-04 18:21 40.68472 17.83540 36099 ft 396 kts 302°
2026-05-04 18:22 40.71259 17.77264 36106 ft 397 kts 302°
2026-05-04 18:22 40.74026 17.70974 36105 ft 394 kts 302°
2026-05-04 18:23 40.76734 17.64791 36106 ft 389 kts 302°
2026-05-04 18:23 40.79444 17.58610 36116 ft 390 kts 302°
2026-05-04 18:24 40.82169 17.52401 36115 ft 392 kts 302°
2026-05-04 18:24 40.84894 17.46161 36120 ft 392 kts 302°
2026-05-04 18:25 40.87621 17.39900 36123 ft 394 kts 302°
2026-05-04 18:25 40.90313 17.33660 36118 ft 391 kts 301°
2026-05-04 18:26 40.92998 17.27429 36117 ft 388 kts 301°
2026-05-04 18:26 40.95682 17.21217 36119 ft 389 kts 301°
2026-05-04 18:27 40.98380 17.14980 36121 ft 390 kts 301°
2026-05-04 18:27 41.01080 17.08736 36121 ft 391 kts 301°
2026-05-04 18:28 41.03782 17.02475 36114 ft 390 kts 301°
2026-05-04 18:28 41.06437 16.96318 36115 ft 385 kts 301°
2026-05-04 18:29 41.09076 16.90169 36120 ft 384 kts 301°
2026-05-04 18:29 41.11712 16.83988 36099 ft 386 kts 301°
2026-05-04 18:30 41.15742 16.74704 36099 ft 387 kts 303°
2026-05-04 18:31 41.18577 16.68683 36093 ft 385 kts 303°
2026-05-04 18:31 41.21440 16.62676 36099 ft 384 kts 303°
2026-05-04 18:32 41.24272 16.56669 36101 ft 383 kts 303°
2026-05-04 18:32 41.27089 16.50653 36105 ft 384 kts 303°
2026-05-04 18:33 41.29910 16.44612 36108 ft 384 kts 303°
2026-05-04 18:33 41.32734 16.38563 36109 ft 385 kts 303°
2026-05-04 18:34 41.35566 16.32498 36101 ft 385 kts 303°
2026-05-04 18:34 41.38360 16.26493 36107 ft 383 kts 302°
2026-05-04 18:35 41.41136 16.20456 36108 ft 381 kts 302°
2026-05-04 18:35 41.43913 16.14422 36108 ft 382 kts 302°
2026-05-04 18:36 41.46702 16.08374 36108 ft 383 kts 302°
2026-05-04 18:36 41.49505 16.02302 36107 ft 385 kts 302°
2026-05-04 18:37 41.52320 15.96196 36097 ft 385 kts 302°
2026-05-04 18:37 41.55100 15.90152 36098 ft 384 kts 302°
2026-05-04 18:38 41.57887 15.84086 36099 ft 383 kts 302°
2026-05-04 18:38 41.60655 15.78025 36099 ft 382 kts 302°
2026-05-04 18:39 41.63417 15.71930 36099 ft 383 kts 302°
2026-05-04 18:39 41.66184 15.65830 36098 ft 384 kts 302°
2026-05-04 18:40 41.68939 15.59763 36091 ft 382 kts 302°
2026-05-04 18:40 41.71694 15.53704 36095 ft 380 kts 302°
2026-05-04 18:41 41.74440 15.47648 36086 ft 380 kts 302°
2026-05-04 18:41 41.77182 15.41596 36083 ft 381 kts 302°
2026-05-04 18:42 41.79934 15.35514 36083 ft 382 kts 302°
2026-05-04 18:42 41.82678 15.29409 36083 ft 382 kts 302°
2026-05-04 18:43 41.85409 15.23348 36072 ft 380 kts 301°
2026-05-04 18:43 41.88147 15.17310 36073 ft 378 kts 302°
2026-05-04 18:44 41.90966 15.11337 36076 ft 379 kts 303°
2026-05-04 18:44 41.93824 15.05421 36079 ft 380 kts 303°
2026-05-04 18:45 41.96707 14.99470 36073 ft 380 kts 303°
2026-05-04 18:45 41.99584 14.93505 36072 ft 381 kts 303°
2026-05-04 18:46 42.02447 14.87563 36081 ft 381 kts 302°
2026-05-04 18:46 42.05312 14.81588 36082 ft 379 kts 302°
2026-05-04 18:47 42.08170 14.75620 36078 ft 379 kts 302°
2026-05-04 18:47 42.11028 14.69645 36076 ft 379 kts 302°
2026-05-04 18:48 42.13850 14.63689 36079 ft 380 kts 302°
2026-05-04 18:48 42.16686 14.57688 36079 ft 380 kts 302°
2026-05-04 18:49 42.19535 14.51669 36073 ft 381 kts 302°
2026-05-04 18:49 42.22389 14.45640 36077 ft 381 kts 302°
2026-05-04 18:50 42.25244 14.39606 36075 ft 381 kts 302°
2026-05-04 18:50 42.28099 14.33564 36077 ft 382 kts 302°
2026-05-04 18:51 42.30954 14.27518 36075 ft 381 kts 302°
2026-05-04 18:51 42.33792 14.21490 36067 ft 379 kts 302°
2026-05-04 18:52 42.36606 14.15465 36076 ft 379 kts 301°
2026-05-04 18:52 42.39404 14.09437 36072 ft 381 kts 301°
2026-05-04 18:53 42.42236 14.03352 36087 ft 381 kts 301°
2026-05-04 18:53 42.45067 13.97278 36087 ft 381 kts 302°
2026-05-04 18:54 42.47903 13.91191 36097 ft 382 kts 301°
2026-05-04 18:54 42.50723 13.85131 36089 ft 382 kts 301°
2026-05-04 18:55 42.53565 13.79023 36090 ft 383 kts 301°
2026-05-04 18:55 42.57782 13.69799 36103 ft 383 kts 300°
2026-05-04 18:56 42.60575 13.63649 36111 ft 381 kts 301°
2026-05-04 18:56 42.63392 13.57551 36113 ft 382 kts 301°
2026-05-04 18:57 42.66222 13.51474 36110 ft 382 kts 301°
2026-05-04 18:57 42.69106 13.45411 36113 ft 381 kts 303°
2026-05-04 18:58 42.72274 13.39642 36100 ft 383 kts 306°
2026-05-04 18:58 42.75558 13.33937 36101 ft 383 kts 306°
2026-05-04 18:59 42.78857 13.28232 36106 ft 382 kts 306°
2026-05-04 18:59 42.82098 13.22507 36117 ft 382 kts 305°
2026-05-04 19:00 42.85328 13.16722 36129 ft 385 kts 305°
2026-05-04 19:00 42.88585 13.10953 36136 ft 386 kts 305°
2026-05-04 19:01 42.91858 13.05134 36136 ft 386 kts 304°
2026-05-04 19:01 42.95126 12.99307 36125 ft 386 kts 304°
2026-05-04 19:02 42.98368 12.93474 36125 ft 385 kts 304°
2026-05-04 19:02 43.01595 12.87653 36125 ft 384 kts 304°
2026-05-04 19:03 43.04823 12.81842 36122 ft 384 kts 304°
2026-05-04 19:03 43.08042 12.76049 36128 ft 385 kts 304°
2026-05-04 19:04 43.11283 12.70216 36131 ft 385 kts 304°
2026-05-04 19:04 43.14517 12.64379 36133 ft 386 kts 304°
2026-05-04 19:05 43.17762 12.58516 36119 ft 386 kts 304°
2026-05-04 19:05 43.20992 12.52656 36125 ft 386 kts 303°
2026-05-04 19:06 43.24224 12.46745 36128 ft 387 kts 304°
2026-05-04 19:06 43.27453 12.40842 36127 ft 389 kts 304°
2026-05-04 19:07 43.30680 12.34962 36125 ft 390 kts 303°
2026-05-04 19:07 43.33932 12.29010 36116 ft 388 kts 303°
2026-05-04 19:08 43.37170 12.23081 36123 ft 387 kts 303°
2026-05-04 19:08 43.40411 12.17145 36126 ft 389 kts 303°
2026-05-04 19:09 43.43673 12.11159 36125 ft 391 kts 303°
2026-05-04 19:09 43.46922 12.05160 36124 ft 391 kts 303°
2026-05-04 19:10 43.50149 11.99175 36125 ft 392 kts 303°
2026-05-04 19:10 43.53400 11.93135 36116 ft 392 kts 303°
2026-05-04 19:11 43.56651 11.87101 36123 ft 392 kts 303°
2026-05-04 19:11 43.59353 11.82087 36120 ft 391 kts 303°
2026-05-04 19:12 43.64215 11.73057 36125 ft 391 kts 303°
2026-05-04 19:13 43.67452 11.67023 36127 ft 390 kts 302°
2026-05-04 19:13 43.70697 11.60972 36121 ft 393 kts 302°
2026-05-04 19:14 43.73925 11.54871 36120 ft 394 kts 302°
2026-05-04 19:14 43.77169 11.48743 36118 ft 395 kts 302°
2026-05-04 19:15 43.80403 11.42649 36116 ft 395 kts 302°
2026-05-04 19:15 43.83661 11.36511 36114 ft 396 kts 302°
2026-05-04 19:16 43.86924 11.30358 36134 ft 396 kts 302°
2026-05-04 19:16 43.90190 11.24197 36095 ft 397 kts 302°
2026-05-04 19:17 43.93441 11.18042 36094 ft 397 kts 301°
2026-05-04 19:17 43.96868 11.12003 36102 ft 400 kts 306°
2026-05-04 19:18 44.00587 11.06237 36122 ft 401 kts 307°
2026-05-04 19:18 44.04299 11.00457 36133 ft 400 kts 306°
2026-05-04 19:19 44.07939 10.94662 36167 ft 401 kts 306°
2026-05-04 19:19 44.11592 10.88786 36185 ft 400 kts 306°
2026-05-04 19:20 44.15223 10.82914 36194 ft 400 kts 306°
2026-05-04 19:20 44.18875 10.77041 36209 ft 401 kts 306°
2026-05-04 19:21 44.22535 10.71160 36211 ft 401 kts 306°
2026-05-04 19:21 44.26156 10.65265 36205 ft 402 kts 306°
2026-05-04 19:22 44.29788 10.59352 36187 ft 400 kts 306°
2026-05-04 19:22 44.33418 10.53453 36189 ft 402 kts 306°
2026-05-04 19:23 44.37069 10.47504 36171 ft 403 kts 306°
2026-05-04 19:23 44.40701 10.41587 36159 ft 403 kts 306°
2026-05-04 19:23 44.42542 10.38580 35835 ft 411 kts 306°
2026-05-04 19:24 44.44414 10.35517 35420 ft 414 kts 306°
2026-05-04 19:24 44.46288 10.32462 34924 ft 413 kts 306°
2026-05-04 19:24 44.48150 10.29429 34369 ft 409 kts 305°
2026-05-04 19:24 44.50001 10.26402 33743 ft 407 kts 305°
2026-05-04 19:25 44.51838 10.23369 33120 ft 409 kts 305°
2026-05-04 19:25 44.53660 10.20347 32530 ft 412 kts 305°
2026-05-04 19:25 44.55525 10.17257 31910 ft 419 kts 305°
2026-05-04 19:25 44.57420 10.14118 31283 ft 424 kts 306°
2026-05-04 19:26 44.59301 10.11011 30642 ft 428 kts 305°
2026-05-04 19:26 44.61244 10.07809 29980 ft 432 kts 306°
2026-05-04 19:26 44.63195 10.04584 29265 ft 435 kts 306°
2026-05-04 19:26 44.65159 10.01335 28592 ft 438 kts 306°
2026-05-04 19:27 44.67142 9.98055 27945 ft 442 kts 306°
2026-05-04 19:27 44.69138 9.94754 27315 ft 445 kts 307°
2026-05-04 19:27 44.71154 9.91418 26666 ft 450 kts 307°
2026-05-04 19:27 44.73183 9.88057 26000 ft 449 kts 307°
2026-05-04 19:28 44.75188 9.84751 25332 ft 450 kts 307°
2026-05-04 19:28 44.77205 9.81404 24667 ft 447 kts 307°
2026-05-04 19:28 44.79191 9.78059 23983 ft 443 kts 307°
2026-05-04 19:28 44.81162 9.74733 23229 ft 441 kts 307°
2026-05-04 19:29 44.83124 9.71437 22485 ft 436 kts 307°
2026-05-04 19:29 44.85066 9.68190 21830 ft 429 kts 308°
2026-05-04 19:29 44.86976 9.64998 21208 ft 423 kts 307°
2026-05-04 19:29 44.88863 9.61838 20601 ft 419 kts 307°
2026-05-04 19:30 44.90728 9.58711 20011 ft 415 kts 307°
2026-05-04 19:30 44.92571 9.55618 19414 ft 412 kts 307°
2026-05-04 19:30 44.94346 9.52645 18796 ft 409 kts 307°
2026-05-04 19:30 44.96168 9.49584 18129 ft 404 kts 307°
2026-05-04 19:31 44.97959 9.46564 17447 ft 398 kts 307°
2026-05-04 19:31 44.99715 9.43600 16822 ft 391 kts 307°
2026-05-04 19:31 45.01441 9.40684 16252 ft 383 kts 307°
2026-05-04 19:31 45.03135 9.37825 15704 ft 375 kts 307°
2026-05-04 19:32 45.04800 9.34994 15171 ft 375 kts 307°
2026-05-04 19:32 45.06480 9.32122 14643 ft 382 kts 307°
2026-05-04 19:32 45.08180 9.29216 14095 ft 383 kts 308°
2026-05-04 19:32 45.09882 9.26313 13477 ft 383 kts 308°
2026-05-04 19:33 45.11577 9.23432 12873 ft 380 kts 307°
2026-05-04 19:33 45.13270 9.20573 12273 ft 378 kts 308°
2026-05-04 19:33 45.14953 9.17716 11718 ft 377 kts 307°
2026-05-04 19:33 45.16626 9.14857 11174 ft 377 kts 307°
2026-05-04 19:34 45.18293 9.12010 10687 ft 373 kts 307°
2026-05-04 19:34 45.19914 9.09248 10464 ft 354 kts 307°
2026-05-04 19:34 45.21449 9.06635 10294 ft 336 kts 307°
2026-05-04 19:34 45.22892 9.04178 10121 ft 320 kts 307°
2026-05-04 19:35 45.24302 9.01774 9978 ft 305 kts 307°
2026-05-04 19:35 45.25608 8.99544 9805 ft 294 kts 306°
2026-05-04 19:35 45.26896 8.97332 9473 ft 288 kts 306°
2026-05-04 19:35 45.28163 8.95149 9084 ft 285 kts 307°
2026-05-04 19:36 45.29421 8.92978 8673 ft 283 kts 307°
2026-05-04 19:36 45.30667 8.90832 8289 ft 281 kts 307°
2026-05-04 19:36 45.31918 8.88681 7536 ft 285 kts 308°
2026-05-04 19:36 45.33183 8.86501 6912 ft 284 kts 309°
2026-05-04 19:37 45.34418 8.84400 6498 ft 274 kts 309°
2026-05-04 19:37 45.35605 8.82373 6227 ft 260 kts 309°
2026-05-04 19:37 45.36791 8.80545 6020 ft 243 kts 325°
2026-05-04 19:37 45.38327 8.79794 5798 ft 232 kts 354°
2026-05-04 19:38 45.39950 8.79570 5381 ft 234 kts 354°
2026-05-04 19:38 45.41559 8.79278 4913 ft 233 kts 351°
2026-05-04 19:38 45.43130 8.78917 4612 ft 224 kts 349°
2026-05-04 19:38 45.44628 8.78507 4309 ft 213 kts 348°
2026-05-04 19:39 45.46039 8.78114 3990 ft 201 kts 348°
2026-05-04 19:39 45.47372 8.77723 3687 ft 193 kts 347°
2026-05-04 19:39 45.48661 8.77335 3392 ft 186 kts 347°
2026-05-04 19:39 45.49900 8.76989 3185 ft 175 kts 348°
2026-05-04 19:40 45.51012 8.76679 3159 ft 149 kts 348°
2026-05-04 19:40 45.51968 8.76407 3030 ft 137 kts 348°
2026-05-04 19:40 45.52599 8.76233 2965 ft 137 kts 348°
2026-05-04 19:40 45.53843 8.75876 2693 ft 140 kts 348°
2026-05-04 19:41 45.54775 8.75586 2512 ft 134 kts 346°
2026-05-04 19:41 45.55670 8.75301 2258 ft 132 kts 348°
2026-05-04 19:41 45.56605 8.75052 1955 ft 139 kts 351°
2026-05-04 19:41 45.57563 8.74852 1751 ft 137 kts 351°
2026-05-04 19:42 45.58493 8.74596 1427 ft 140 kts 347°
2026-05-04 19:42 45.59457 8.74331 1250 ft 137 kts 349°
2026-05-04 19:42 45.60386 8.74101 989 ft 138 kts 349°
2026-05-04 19:42 45.61324 8.73816 830 ft 138 kts 348°
2026-05-04 19:43 45.62206 8.73577 746 ft 123 kts 349°
2026-05-04 19:43 45.62817 8.73406 746 ft 64 kts 349°
2026-05-04 19:43 45.63114 8.73274 744 ft 33 kts 325°
2026-05-04 19:43 45.63255 8.73068 749 ft 28 kts 307°
2026-05-04 19:44 45.63368 8.72841 749 ft 28 kts 302°
2026-05-04 19:44 45.63334 8.72617 750 ft 24 kts 212°
2026-05-04 19:44 45.63206 8.72496 752 ft 24 kts 215°
2026-05-04 19:44 45.63066 8.72348 747 ft 25 kts 230°
2026-05-04 19:45 45.63014 8.72114 748 ft 24 kts 259°
2026-05-04 19:45 45.62983 8.71885 751 ft 24 kts 259°
2026-05-04 19:45 45.62913 8.71754 753 ft 19 kts 176°
2026-05-04 19:45 45.62845 8.71786 751 ft 9 kts 122°
2026-05-04 19:46 45.62844 8.71857 750 ft 6 kts 78°
2026-05-04 19:46 45.62848 8.71882 751 ft 0 kts 77°
2026-05-04 19:46 45.62848 8.71883 751 ft 0 kts 77°